Date,TemperatureHighF,TemperatureAvgF,TemperatureLowF,DewpointHighF,DewpointAvgF,DewpointLowF,HumidityHigh,HumidityAvg,HumidityLow,PressureMaxIn,PressureMinIn,WindSpeedMaxMPH,WindSpeedAvgMPH,GustSpeedMaxMPH,PrecipitationSumIn
2013-6-1,77,69,64,70,65,60,98,86,64,29.73,29.61,15,9,21,0.37
2013-6-2,64,58,51,61,53,47,97,81,69,30.03,29.73,15,7,19,0.00
2013-6-3,71,60,47,53,49,45,96,69,43,30.12,30.01,8,2,12,0.00
2013-6-4,73,64,53,53,50,44,89,60,43,30.14,30.02,17,7,22,0.00
2013-6-5,68,62,57,61,55,48,92,80,62,30.08,29.90,16,9,18,0.23
2013-6-6,68,61,56,61,56,52,97,85,70,29.92,29.85,12,8,16,0.43
2013-6-7,72,63,56,58,53,49,89,71,49,29.94,29.88,11,7,16,0.00
2013-6-8,77,67,52,57,49,43,83,55,34,29.96,29.91,14,4,19,0.00
2013-6-9,84,71,61,66,58,46,93,66,41,29.95,29.75,17,10,24,0.06
2013-6-10,79,70,59,67,63,58,99,79,55,29.85,29.72,11,4,16,0.00
2013-6-11,89,76,61,70,65,59,97,71,39,29.89,29.75,13,3,17,0.00
2013-6-12,93,77,66,76,70,66,99,82,52,29.86,29.54,25,8,26,0.79
2013-6-13,72,66,63,66,62,59,99,86,64,30.00,29.60,14,9,18,0.06
2013-6-14,78,68,55,63,58,52,91,71,49,30.12,29.95,12,5,16,0.00
2013-6-15,83,72,64,72,65,58,91,80,61,30.01,29.81,25,7,38,0.08
2013-6-16,85,73,66,69,66,61,96,80,45,29.90,29.84,17,5,19,0.00
2013-6-17,87,82,68,65,60,53,87,49,32,29.92,29.82,9,4,13,0.00
2013-6-18,78,68,58,62,57,50,84,68,53,30.04,29.86,15,10,20,0.00
2013-6-19,83,69,53,63,55,48,82,63,42,30.11,30.01,11,5,14,0.00
2013-6-20,91,78,63,66,61,55,78,57,37,30.10,29.99,9,5,14,0.00
2013-6-21,83,74,67,71,67,63,97,79,60,30.15,29.90,20,8,26,0.32
2013-6-22,84,76,67,77,71,65,98,85,72,30.09,29.89,21,9,26,0.24
2013-6-23,88,74,68,76,69,65,96,85,64,30.00,29.83,17,6,23,0.06
2013-6-24,84,71,67,75,68,65,98,91,71,30.06,29.84,21,6,46,0.98
2013-6-25,83,76,68,78,73,65,98,89,75,29.92,29.76,16,5,22,0.06
2013-6-26,83,80,76,74,73,71,91,79,69,29.74,29.68,8,4,12,0.02
2013-6-27,88,78,70,75,71,63,99,79,52,29.78,29.69,16,6,26,0.00
2013-6-28,81,72,63,67,64,61,93,75,52,29.73,29.61,16,8,23,0.00
2013-6-29,72,67,63,67,64,59,98,91,71,29.77,29.58,14,7,19,0.33
2013-6-30,74,66,59,59,56,53,82,69,54,29.98,29.93,8,5,10,0.00